Provo, UT

8:07 PM MDT on September 27, 2016 (GMT -0600)
Provo Municipal

Weather History for KPVU - September, 2013

Change the Weather History Date:

Thursday, September 5, 2013

  Actual Average Record
Temperature  
Mean Temperature 78 °F -  
Max Temperature 91 °F 79 °F 91 °F (1984)
Min Temperature 66 °F 51 °F 39 °F (2004)
Cooling Degree Days 14    
Growing Degree Days 28 (Base 50)    
Moisture  
Dew Point 55 °F    
Average Humidity 52    
Maximum Humidity 68    
Minimum Humidity 23    
Precipitation  
Precipitation 0.00 in - - ()
Sea Level Pressure  
Sea Level Pressure 30.15 in    
Wind  
Wind Speed 8 mph (SSE)    
Max Wind Speed 25 mph    
Max Gust Speed 24 mph    
Visibility 12 miles    
Events      
Averages and records for this station are not official NWS values.
T = Trace of Precipitation, MM = Missing Value Source: NWS Daily Summary

Daily Weather History Graph

Daily Weather History Graph

Search for Another Location

Airport or City:

Trip Planner

Search our weather history database for the weather conditions in past years. The results will help you decide how hot, cold, wet, or windy it might be!

Date:

Astronomy

Sep. 05, 2013 Rise Set
Actual Time 6:58 AM MDT 7:51 PM MDT
Civil Twilight 6:30 AM MDT 8:19 PM MDT
Nautical Twilight 5:58 AM MDT 8:51 PM MDT
Astronomical Twilight 5:23 AM MDT 9:25 PM MDT
Moon 7:13 AM MDT (9/5) 7:45 PM MDT (9/5)
Length of Visible Light 13h 48m
Length of Day
12h 53m
New Moon, 0% of the Moon is Illuminated
Sep 5
New Moon
Sep 12
First Quarter
Sep 19
Full
Sep 26
Last Quarter
Oct 4
New

Hourly Weather History & Observations

Time (MDT) Temp. Heat Index Dew Point Humidity Pressure Visibility Wind Dir Wind Speed Gust Speed Precip Events Conditions
12:15 AM 73.4 °F - 57.2 °F 57% 30.17 in 10.0 mi West 3.5 mph - N/A   Clear
12:35 AM 73.4 °F - 55.4 °F 53% 30.17 in 10.0 mi SSE 8.1 mph - N/A   Partly Cloudy
12:55 AM 73.4 °F - 55.4 °F 53% 30.18 in 10.0 mi SE 17.3 mph 24.2 mph N/A   Mostly Cloudy
1:15 AM 71.6 °F - 57.2 °F 60% 30.21 in 10.0 mi SSE 16.1 mph - N/A   Mostly Cloudy
1:35 AM 71.6 °F - 55.4 °F 57% 30.20 in 10.0 mi SE 4.6 mph - N/A   Overcast
1:55 AM 68.0 °F - 57.2 °F 68% 30.19 in 10.0 mi South 4.6 mph - N/A   Mostly Cloudy
2:35 AM 69.8 °F - 57.2 °F 64% 30.19 in 10.0 mi SE 25.3 mph - N/A   Mostly Cloudy
2:55 AM 71.6 °F - 55.4 °F 57% 30.19 in 10.0 mi SE 8.1 mph - N/A   Scattered Clouds
3:15 AM 69.8 °F - 55.4 °F 60% 30.17 in 10.0 mi NNW 8.1 mph - N/A   Clear
3:35 AM 71.6 °F - 53.6 °F 53% 30.17 in 10.0 mi West 5.8 mph - N/A   Clear
3:55 AM 71.6 °F - 55.4 °F 57% 30.17 in 10.0 mi SW 6.9 mph - N/A   Clear
4:15 AM 71.6 °F - 53.6 °F 53% 30.17 in 10.0 mi SE 11.5 mph - N/A   Partly Cloudy
4:35 AM 71.6 °F - 53.6 °F 53% 30.17 in 10.0 mi SSE 5.8 mph - N/A   Clear
4:55 AM 69.8 °F - 55.4 °F 60% 30.17 in 10.0 mi SSE 8.1 mph - N/A   Clear
5:15 AM 69.8 °F - 53.6 °F 56% 30.17 in 10.0 mi SSE 9.2 mph - N/A   Scattered Clouds
5:35 AM 66.2 °F - 55.4 °F 68% 30.17 in 10.0 mi ESE 5.8 mph - N/A   Partly Cloudy
5:55 AM 68.0 °F - 53.6 °F 60% 30.18 in 10.0 mi SSE 5.8 mph - N/A   Clear
6:15 AM 66.2 °F - 53.6 °F 64% 30.18 in 10.0 mi South 6.9 mph - N/A   Clear
6:35 AM 66.2 °F - 55.4 °F 68% 30.19 in 10.0 mi South 8.1 mph - N/A   Partly Cloudy
6:55 AM 66.2 °F - 55.4 °F 68% 30.21 in 10.0 mi SSE 17.3 mph 21.9 mph N/A   Partly Cloudy
6:56 AM 66.2 °F - 55.4 °F 68% 30.21 in 15.0 mi SSE 13.8 mph 20.7 mph N/A   Mostly Cloudy
7:54 AM 66.2 °F - 53.6 °F 64% 30.18 in 15.0 mi WSW 3.5 mph - N/A   Mostly Cloudy
8:55 AM 73.4 °F - 53.6 °F 50% 30.18 in 15.0 mi SW 5.8 mph - N/A   Mostly Cloudy
9:50 AM 73.4 °F - 55.4 °F 53% 30.19 in 15.0 mi WNW 3.5 mph - N/A   Mostly Cloudy
10:47 AM 75.2 °F - 55.4 °F 50% 30.20 in 15.0 mi Calm Calm - N/A   Scattered Clouds
11:54 AM 78.8 °F - 57.2 °F 47% 30.18 in 15.0 mi Variable 4.6 mph - N/A   Partly Cloudy
12:52 PM 84.2 °F 83.0 °F 55.4 °F 37% 30.17 in 15.0 mi Variable 4.6 mph - N/A   Scattered Clouds
1:52 PM 87.8 °F 86.5 °F 57.2 °F 35% 30.15 in 15.0 mi Calm Calm - N/A   Scattered Clouds
2:51 PM 89.6 °F 87.7 °F 55.4 °F 31% 30.12 in 10.0 mi Calm Calm - N/A   Scattered Clouds
3:55 PM 91.4 °F - 48.2 °F 23% 30.10 in 15.0 mi South 4.6 mph - N/A   Scattered Clouds
4:52 PM 91.4 °F - 48.2 °F 23% 30.09 in 15.0 mi South 3.5 mph - N/A   Scattered Clouds
5:47 PM 89.6 °F 87.3 °F 53.6 °F 29% 30.09 in 15.0 mi East 13.8 mph - N/A   Mostly Cloudy
6:57 PM 84.2 °F 83.8 °F 59.0 °F 42% 30.07 in 15.0 mi SSE 5.8 mph - N/A   Mostly Cloudy
7:50 PM 78.8 °F - 53.6 °F 42% 30.08 in 15.0 mi East 12.7 mph - N/A   Scattered Clouds
8:47 PM 78.8 °F - 53.6 °F 42% 30.10 in 15.0 mi SSE 10.4 mph - N/A   Scattered Clouds
9:15 PM 80.6 °F 80.5 °F 55.4 °F 42% 30.09 in 10.0 mi SE 9.2 mph - N/A   Mostly Cloudy
9:35 PM 78.8 °F - 55.4 °F 44% 30.10 in 10.0 mi ESE 6.9 mph - N/A   Scattered Clouds
9:55 PM 75.2 °F - 57.2 °F 53% 30.10 in 10.0 mi SE 5.8 mph - N/A   Mostly Cloudy
10:15 PM 73.4 °F - 57.2 °F 57% 30.10 in 10.0 mi Calm Calm - N/A   Overcast
10:35 PM 73.4 °F - 57.2 °F 57% 30.11 in 10.0 mi SE 5.8 mph - N/A   Overcast
10:55 PM 75.2 °F - 55.4 °F 50% 30.11 in 10.0 mi East 10.4 mph - N/A   Overcast
11:15 PM 73.4 °F - 53.6 °F 50% 30.12 in 10.0 mi SE 6.9 mph - N/A   Mostly Cloudy
11:35 PM 73.4 °F - 53.6 °F 50% 30.12 in 10.0 mi SSE 9.2 mph - N/A   Mostly Cloudy
11:55 PM 73.4 °F - 53.6 °F 50% 30.12 in 10.0 mi ESE 8.1 mph - N/A   Scattered Clouds